Cape Cod CGAS, MA

8:06 AM EDT on August 25, 2019 (GMT -0400)
Cape Cod Coast Guard Air Station

Weather History for KFMH - July, 2019

Change the Weather History Date:

Monday, July 22, 2019

  Actual Average Record
Temperature  
Mean Temperature 76 °F -  
Max Temperature 84 °F 76 °F 91 °F (2011)
Min Temperature 69 °F 60 °F 50 °F (2012)
Cooling Degree Days 12    
Growing Degree Days 26 (Base 50)    
Moisture  
Dew Point 70 °F    
Average Humidity 83    
Maximum Humidity 100    
Minimum Humidity 54    
Precipitation  
Precipitation 0.00 in - - ()
Sea Level Pressure  
Sea Level Pressure 29.82 in    
Wind  
Wind Speed 7 mph (NNE)    
Max Wind Speed 21 mph    
Max Gust Speed 23 mph    
Visibility 9 miles    
Events Rain , Thunderstorm    
Averages and records for this station are not official NWS values.
T = Trace of Precipitation, MM = Missing Value Source: NWS Daily Summary

Daily Weather History Graph

Daily Weather History Graph

Search for Another Location

Airport or City:

Astronomy

Jul. 22, 2019 Rise Set
Actual Time 5:26 AM EDT 8:09 PM EDT
Civil Twilight 4:54 AM EDT 8:42 PM EDT
Nautical Twilight 4:13 AM EDT 9:22 PM EDT
Astronomical Twilight 3:27 AM EDT 10:08 PM EDT
Moon 11:25 PM EDT (7/22) 10:44 AM EDT (7/22)
Length of Visible Light 15h 47m
Length of Day
14h 43m
Waning Gibbous, 72% of the Moon is Illuminated
Jul 22
Waning Gibbous
Jul 24
Last Quarter
Jul 31
New
Aug 7
First Quarter
Aug 15
Full

Hourly Weather History & Observations

Time (EDT) Temp. Heat Index Dew Point Humidity Pressure Visibility Wind Dir Wind Speed Gust Speed Precip Events Conditions
12:15 AM 77.0 °F - 73.4 °F 89% 29.80 in 10.0 mi WNW 4.6 mph - N/A   Mostly Cloudy
12:35 AM 77.0 °F - 73.4 °F 89% 29.80 in 10.0 mi West 4.6 mph - N/A   Overcast
12:55 AM 78.8 °F - 71.6 °F 78% 29.80 in 10.0 mi WNW 5.8 mph - N/A   Overcast
1:15 AM 77.0 °F - 69.8 °F 78% 29.81 in 2.5 mi NW 8.1 mph - N/A Rain Light Rain
1:35 AM 75.2 °F - 71.6 °F 89% 29.81 in 10.0 mi WNW 4.6 mph - N/A   Mostly Cloudy
1:55 AM 75.2 °F - 71.6 °F 89% 29.81 in 10.0 mi WNW 3.5 mph - N/A   Scattered Clouds
2:15 AM 73.4 °F - 73.4 °F 100% 29.81 in 10.0 mi WNW 5.8 mph - N/A   Clear
2:35 AM 75.2 °F - 69.8 °F 83% 29.81 in 10.0 mi NW 5.8 mph - N/A   Clear
2:55 AM 73.4 °F - 69.8 °F 88% 29.80 in 10.0 mi WNW 5.8 mph - N/A   Clear
3:15 AM 73.4 °F - 69.8 °F 88% 29.81 in 10.0 mi NW 5.8 mph - N/A   Clear
3:35 AM 73.4 °F - 68.0 °F 83% 29.81 in 10.0 mi NW 5.8 mph - N/A   Clear
3:55 AM 73.4 °F - 68.0 °F 83% 29.82 in 10.0 mi NW 5.8 mph - N/A   Clear
4:15 AM 73.4 °F - 68.0 °F 83% 29.81 in 10.0 mi NNW 5.8 mph - N/A   Clear
4:35 AM 73.4 °F - 68.0 °F 83% 29.81 in 10.0 mi NNW 6.9 mph - N/A   Clear
4:55 AM 71.6 °F - 68.0 °F 88% 29.82 in 10.0 mi NW 5.8 mph - N/A   Clear
5:15 AM 71.6 °F - 68.0 °F 88% 29.83 in 10.0 mi NNW 5.8 mph - N/A   Clear
5:35 AM 73.4 °F - 68.0 °F 83% 29.83 in 10.0 mi NNW 5.8 mph - N/A   Clear
5:55 AM 71.6 °F - 68.0 °F 88% 29.84 in 10.0 mi NW 4.6 mph - N/A   Clear
6:15 AM 73.4 °F - 66.2 °F 78% 29.84 in 10.0 mi NNE 4.6 mph - N/A   Clear
6:35 AM 73.4 °F - 68.0 °F 83% 29.84 in 10.0 mi North 5.8 mph - N/A   Clear
6:55 AM 75.2 °F - 66.2 °F 73% 29.85 in 10.0 mi North 4.6 mph - N/A   Clear
7:15 AM 77.0 °F - 66.2 °F 69% 29.85 in 10.0 mi North 4.6 mph - N/A   Clear
7:35 AM 77.0 °F - 66.2 °F 69% 29.85 in 10.0 mi North 6.9 mph - N/A   Clear
7:55 AM 77.0 °F - 66.2 °F 69% 29.86 in 10.0 mi North 6.9 mph 15.0 mph N/A   Clear
8:15 AM 78.8 °F - 68.0 °F 69% 29.85 in 10.0 mi Variable 6.9 mph - N/A   Clear
8:35 AM 78.8 °F - 66.2 °F 65% 29.85 in 10.0 mi Variable 5.8 mph 13.8 mph N/A   Clear
8:55 AM 78.8 °F - 66.2 °F 65% 29.85 in 10.0 mi NNE 9.2 mph - N/A   Clear
9:15 AM 78.8 °F - 66.2 °F 65% 29.85 in 10.0 mi NNE 8.1 mph - N/A   Clear
9:35 AM 80.6 °F 82.7 °F 66.2 °F 61% 29.86 in 10.0 mi NNE 5.8 mph - N/A   Clear
9:55 AM 80.6 °F 83.2 °F 68.0 °F 65% 29.87 in 10.0 mi North 6.9 mph - N/A   Clear
10:15 AM 80.6 °F 83.2 °F 68.0 °F 65% 29.87 in 10.0 mi North 4.6 mph 11.5 mph N/A   Clear
10:35 AM 80.6 °F 83.2 °F 68.0 °F 65% 29.86 in 10.0 mi North 8.1 mph - N/A   Clear
10:55 AM 82.4 °F 85.4 °F 68.0 °F 62% 29.86 in 10.0 mi NE 11.5 mph - N/A   Clear
11:15 AM 82.4 °F 85.4 °F 68.0 °F 62% 29.86 in 10.0 mi NE 10.4 mph - N/A   Clear
11:35 AM 82.4 °F 85.4 °F 68.0 °F 62% 29.86 in 10.0 mi Variable 5.8 mph 12.7 mph N/A   Clear
11:55 AM 82.4 °F 85.4 °F 68.0 °F 62% 29.86 in 10.0 mi NNE 6.9 mph - N/A   Clear
12:15 PM 80.6 °F 83.2 °F 68.0 °F 65% 29.86 in 10.0 mi NNE 5.8 mph - N/A   Clear
12:35 PM 78.8 °F - 69.8 °F 74% 29.86 in 10.0 mi North 5.8 mph - N/A   Partly Cloudy
12:55 PM 77.0 °F - 68.0 °F 74% 29.86 in 10.0 mi NNE 6.9 mph - N/A   Clear
1:35 PM 75.2 °F - 68.0 °F 78% 29.85 in 10.0 mi NNE 8.1 mph - N/A   Scattered Clouds
1:55 PM 75.2 °F - 69.8 °F 83% 29.87 in 10.0 mi Variable 3.5 mph - N/A   Mostly Cloudy
2:15 PM 73.4 °F - 71.6 °F 94% 29.86 in 9.0 mi Variable 5.8 mph 12.7 mph N/A Thunderstorm Mostly Cloudy
2:35 PM 75.2 °F - 71.6 °F 89% 29.87 in 10.0 mi North 8.1 mph - N/A   Overcast
2:55 PM 73.4 °F - 71.6 °F 94% 29.85 in 10.0 mi NNE 10.4 mph - N/A   Overcast
3:15 PM 73.4 °F - 73.4 °F 100% 29.84 in 5.0 mi NE 9.2 mph - N/A   Light Drizzle
3:35 PM 75.2 °F - 73.4 °F 94% 29.84 in 8.0 mi NE 12.7 mph - N/A   Mostly Cloudy
3:55 PM 75.2 °F - 71.6 °F 89% 29.84 in 8.0 mi NNE 10.4 mph - N/A   Mostly Cloudy
4:15 PM 75.2 °F - 71.6 °F 89% 29.83 in 8.0 mi NE 9.2 mph - N/A   Overcast
4:35 PM 75.2 °F - 71.6 °F 89% 29.82 in 8.0 mi ENE 9.2 mph - N/A   Mostly Cloudy
4:55 PM 77.0 °F - 71.6 °F 83% 29.81 in 8.0 mi ENE 9.2 mph - N/A   Overcast
5:15 PM 77.0 °F - 71.6 °F 83% 29.80 in 10.0 mi ENE 9.2 mph - N/A   Mostly Cloudy
5:35 PM 77.0 °F - 73.4 °F 89% 29.80 in 10.0 mi ENE 8.1 mph - N/A   Mostly Cloudy
5:55 PM 77.0 °F - 71.6 °F 83% 29.81 in 10.0 mi NE 6.9 mph - N/A   Overcast
6:15 PM 75.2 °F - 71.6 °F 89% 29.80 in 10.0 mi NNE 8.1 mph - N/A   Overcast
6:35 PM 75.2 °F - 71.6 °F 89% 29.79 in 10.0 mi NE 6.9 mph - N/A   Overcast
6:55 PM 75.2 °F - 71.6 °F 89% 29.80 in 10.0 mi NNE 9.2 mph - N/A   Overcast
7:15 PM 73.4 °F - 71.6 °F 94% 29.79 in 10.0 mi ENE 9.2 mph - N/A   Overcast
7:35 PM 73.4 °F - 71.6 °F 94% 29.79 in 10.0 mi NE 8.1 mph - N/A   Overcast
7:55 PM 73.4 °F - 71.6 °F 94% 29.78 in 10.0 mi ENE 10.4 mph - N/A   Overcast
8:15 PM 73.4 °F - 71.6 °F 94% 29.79 in 10.0 mi East 6.9 mph - N/A   Overcast
8:35 PM 73.4 °F - 71.6 °F 94% 29.79 in 10.0 mi East 6.9 mph - N/A Thunderstorm Overcast
8:55 PM 73.4 °F - 69.8 °F 88% 29.78 in 10.0 mi East 10.4 mph - N/A Thunderstorm Overcast
9:15 PM 73.4 °F - 69.8 °F 88% 29.78 in 10.0 mi ENE 10.4 mph 17.3 mph N/A   Overcast
9:35 PM 71.6 °F - 71.6 °F 100% 29.76 in 10.0 mi East 13.8 mph - N/A Thunderstorm Overcast
10:15 PM 69.8 °F - 69.8 °F 100% 29.76 in 0.2 mi NNE 20.7 mph - N/A Rain , Thunderstorm Light Thunderstorms and Rain
10:35 PM 69.8 °F - 69.8 °F 100% 29.78 in 10.0 mi NE 10.4 mph 23.0 mph N/A Thunderstorm Thunderstorm
10:55 PM 69.8 °F - 69.8 °F 100% 29.77 in 10.0 mi East 8.1 mph - N/A Thunderstorm Overcast
11:15 PM 69.8 °F - 69.8 °F 100% 29.77 in 10.0 mi ENE 8.1 mph - N/A   Partly Cloudy
11:35 PM 69.8 °F - 69.8 °F 100% 29.75 in 10.0 mi NE 6.9 mph - N/A   Clear
11:55 PM 69.8 °F - 69.8 °F 100% 29.73 in 10.0 mi East 5.8 mph - N/A   Scattered Clouds